Volver al catálogo

COSMOS 886

ActivoMilitarUNKNOWN
NORAD 9634·PAYLOAD·🇷🇺 Russia

Lanzado Dec 27, 1976 desde Baikonur Cosmodrome

Loading…

Próximos Pases (próximas 24 horas)

TLE

ActualizadoSource: Space-Track

Época: Sep 13, 2026, 22:58 UTC

1  9634U 76126A   26256.95751954 -.00000078  00000-0 -33005-5 0  9993
2  9634  65.8314 250.9601 1090458 221.5306 129.7704 12.56626419291363

Sigue COSMOS 886 en tiempo real con AllMySat

Download on the App Store